Wind_Speed
23 22 22 22 21 21 20 20 20 20 18 18 18 18 18 18 18 18 18 18 19 19 19 18 18 17 17 16 17 17 17 17 17 17 17 17 17 17 17 17 17 18 17
24 24 23 23 22 21 22 21 21 22 21 21 20 20 20 20 20 20 20 19 19 19 19 20 20 20 19 19 18 18 19 19 19 19 19 19 19 19 19 19 19 20 20
25 25 25 24 23 23 23 23 23 23 23 22 21 21 21 21 21 22 22 22 21 20 20 21 22 22 21 20 20 20 20 20 21 21 21 21 21 21 21 22 21 22 22
26 26 26 25 25 24 24 24 24 24 25 24 23 23 22 23 23 23 23 24 23 22 22 22 23 24 24 23 23 23 22 22 22 22 23 23 23 23 24 24 24 24 24
28 27 27 26 26 25 25 25 25 25 25 25 25 25 25 24 24 24 24 24 23 23 24 24 24 24 25 25 25 25 24 24 23 24 24 25 25 25 25 25 25 25 25
29 28 28 27 26 26 27 26 26 26 26 25 25 25 26 26 25 24 24 25 25 24 25 25 25 25 25 26 26 27 27 26 26 26 26 26 26 26 27 27 27 27 27
28 28 28 27 27 27 27 27 27 26 26 27 26 26 26 27 27 26 26 27 26 26 26 26 26 26 25 26 27 28 28 28 28 27 27 28 28 28 28 28 29 29 29
27 27 27 26 25 26 26 27 27 26 27 27 27 27 27 27 27 27 27 27 27 27 26 26 27 27 27 27 27 28 28 29 30 30 30 29 29 30 30 31 31 31 32
26 26 27 27 26 26 26 26 27 27 27 27 27 27 27 28 28 28 28 28 28 28 28 28 28 29 29 29 29 30 31 31 31 31 31 31 31 32 32 32 31 31 32
26 26 26 26 26 27 27 27 28 27 27 28 28 28 28 29 28 28 28 29 29 30 30 29 30 30 31 30 30 31 32 32 32 32 32 32 32 33 33 32 32 32 32
24 25 25 26 26 27 28 28 28 27 27 28 28 28 28 28 28 29 29 30 31 31 31 31 31 31 31 31 30 31 32 33 32 32 32 33 33 33 34 35 35 34 34
24 25 25 26 27 27 27 28 28 28 27 27 28 28 28 28 29 30 30 31 31 31 31 31 32 32 31 32 33 33 33 33 33 33 34 34 33 33 35 36 36 35 36
25 25 26 27 27 28 28 28 28 27 28 28 28 28 28 28 29 30 30 30 31 31 32 32 32 32 32 33 33 33 33 34 33 33 34 33 33 34 34 34 35 35 36
27 27 27 28 28 29 28 28 28 28 28 28 28 28 28 28 28 28 29 29 30 31 31 31 31 32 32 32 32 31 31 32 33 33 34 33 33 34 34 35 35 34 35
28 29 29 30 30 30 29 29 29 29 29 29 29 29 29 29 28 28 28 29 29 30 30 30 30 30 31 31 31 31 31 31 32 34 34 34 34 34 34 35 34 34 35
30 30 30 30 31 31 31 31 31 30 30 30 30 29 29 29 28 28 28 28 28 28 29 29 29 30 30 30 30 29 30 31 31 31 32 33 33 33 33 33 33 34 34
30 31 31 31 32 32 32 31 31 31 31 30 30 29 29 28 28 28 27 27 27 28 28 28 28 28 29 29 29 29 30 30 29 29 30 31 31 31 31 32 31 31 31
30 31 31 31 32 32 32 32 31 31 31 30 30 30 29 29 28 27 26 26 26 26 26 26 27 27 27 27 26 27 28 28 27 27 29 29 29 29 29 29 29 28 28
28 29 29 30 30 31 31 30 30 29 29 29 29 29 28 27 26 25 25 24 24 24 25 25 25 24 25 25 26 25 25 25 25 25 25 25 25 25 25 25 25 25 25
26 27 28 28 28 28 28 28 28 28 27 26 26 25 25 25 24 24 23 22 22 22 22 23 23 23 23 23 24 24 23 22 21 22 22 22 22 22 22 22 22 22 22
25 26 25 25 25 26 26 25 25 25 24 24 23 22 22 21 21 21 21 21 20 20 20 21 21 21 21 21 21 21 20 20 20 19 19 19 19 19 20 19 19 18 17
24 23 22 22 22 23 22 22 21 22 22 21 21 19 18 18 18 18 18 18 18 18 18 18 17 17 16 16 16 16 16 16 16 15 15 15 15 16 16 15 15 15 15
21 20 20 20 20 20 19 19 19 18 18 18 17 16 15 16 16 16 15 15 15 15 15 15 15 13 12 12 13 13 13 12 12 12 11 12 13 13 13 12 12 12 13
19 19 19 18 18 17 17 16 16 15 14 14 14 13 12 12 12 12 12 13 13 13 12 12 12 11 11 10 10 10 10 10 10 9 9 10 10 10 10 10 10 11 12
17 17 17 17 16 16 15 14 13 12 12 12 11 11 10 10 10 10 10 10 10 9 9 9 8 8 8 7 7 6 6 6 6 6 6 6 7 7 8 9 9 10 11
14 14 13 13 12 12 12 12 11 9 9 9 9 9 9 8 7 7 7 7 7 7 6 6 6 6 5 4 4 3 3 3 3 4 4 5 6 7 8 9 9 10 11
Wind_Direction
252 253 254 258 260 260 261 262 264 266 268 270 270 268 267 270 273 273 273 271 267 261 260 261 261 261 261 261 258 255 254 253 252 253 255 256 255 256 257 259 261 263 265
253 255 256 257 259 260 260 262 264 265 267 269 270 270 268 268 270 272 271 271 268 263 261 260 260 259 260 260 260 259 258 257 255 254 255 257 257 258 259 261 264 265 266
254 255 256 257 259 260 261 262 263 262 264 267 269 270 271 270 269 271 271 268 266 263 261 260 260 260 260 260 261 262 260 259 258 257 257 257 259 260 261 264 266 268 268
253 255 257 258 259 261 262 263 264 263 264 266 268 270 271 271 271 271 270 268 265 263 262 262 262 262 262 262 261 261 260 260 260 259 258 259 260 261 263 265 266 268 269
253 254 256 257 258 259 262 265 266 265 266 268 269 268 268 270 271 270 269 267 264 263 262 262 263 263 263 262 262 261 260 261 260 261 260 260 261 261 263 264 265 267 269
253 254 255 257 259 260 262 264 264 264 265 268 269 268 268 269 268 268 268 267 265 264 264 264 264 264 264 263 262 261 261 261 260 262 262 261 262 262 264 264 265 267 268
256 255 256 258 261 261 263 265 265 264 266 267 269 269 267 267 266 266 267 266 265 265 265 264 264 266 266 265 263 261 262 263 263 263 265 265 264 264 264 265 266 266 268
259 258 259 261 263 263 265 266 265 265 267 268 268 268 267 265 264 265 265 265 264 264 265 265 265 265 266 266 264 262 262 265 267 265 265 267 266 265 266 266 265 267 267
258 259 260 262 265 266 266 266 266 266 267 267 269 269 266 265 264 265 265 265 265 266 267 266 265 265 265 265 263 261 263 266 266 265 265 269 269 269 269 269 268 267 269
260 260 259 262 264 265 267 268 268 266 267 267 268 269 266 265 265 265 266 265 267 268 267 267 266 265 265 265 262 262 264 266 264 264 266 268 271 270 268 267 268 269 270
263 262 262 263 265 267 267 268 268 268 267 268 268 269 268 266 265 266 266 267 267 267 267 267 267 268 267 265 264 264 264 266 265 264 265 267 271 270 268 268 269 269 271
267 265 263 264 265 267 269 269 269 268 268 267 268 269 269 267 266 265 265 265 266 266 267 268 268 268 267 267 266 266 266 266 268 267 266 267 269 270 270 269 270 271 272
270 267 265 265 266 267 268 268 269 268 267 268 269 270 270 268 266 266 266 266 266 266 267 269 269 269 268 268 269 269 270 270 269 268 269 267 269 268 269 271 274 274 274
269 268 266 266 267 267 268 268 268 268 268 268 269 269 269 270 269 267 266 267 267 267 268 270 270 269 269 270 270 270 271 270 268 268 267 267 268 269 272 273 276 275 276
270 269 268 268 267 268 268 268 268 269 269 269 269 269 270 270 269 268 267 268 268 267 267 269 270 270 269 269 270 270 270 271 270 269 266 268 271 272 274 275 276 276 277
270 269 268 268 268 268 270 270 270 269 269 269 269 270 270 269 269 269 269 268 269 269 268 269 270 271 271 271 270 271 271 271 272 269 268 269 271 273 275 277 277 278 278
273 271 270 269 268 269 270 270 270 270 269 268 268 269 268 268 268 267 267 268 268 268 268 268 269 271 273 273 272 270 271 272 272 272 271 272 275 277 278 279 278 278 281
274 272 272 270 269 269 270 271 270 270 269 268 268 268 267 267 266 265 265 266 267 268 267 267 268 269 270 271 271 271 273 274 273 274 272 273 275 277 278 280 280 282 285
274 273 272 271 271 270 270 269 269 269 269 268 268 267 266 264 264 263 263 265 266 267 267 267 267 269 269 270 271 270 272 272 274 276 276 277 278 280 283 284 286 287 288
275 274 273 271 270 269 269 268 268 267 266 266 266 266 264 261 260 261 262 263 265 265 265 266 266 268 269 270 270 269 269 273 275 277 279 282 283 286 289 292 293 293 294
275 274 272 270 268 268 267 267 266 265 264 264 265 264 262 260 259 260 262 263 263 263 264 265 266 265 266 268 268 268 270 272 274 278 281 286 290 293 295 296 298 298 298
275 273 270 270 268 267 267 264 264 263 262 260 261 262 262 261 259 260 261 261 260 260 260 261 262 262 264 266 269 270 271 273 278 281 285 289 292 294 296 299 300 302 305
272 270 270 269 267 266 264 261 262 262 260 258 259 260 257 255 255 254 255 255 254 255 257 258 258 259 262 267 268 269 271 274 281 286 289 288 293 298 301 305 310 313 314
272 269 268 265 264 262 260 259 257 257 256 254 252 250 247 248 247 246 251 255 255 256 255 254 254 259 262 262 260 265 272 279 282 284 289 293 298 307 313 318 319 319 320
271 270 265 261 258 256 255 253 254 251 250 247 243 238 237 241 242 245 246 247 248 244 244 247 246 248 252 253 258 265 267 273 283 288 293 301 311 319 324 326 323 322 323
268 266 261 254 253 253 247 242 239 238 237 232 228 225 224 227 230 234 234 236 232 228 231 235 233 234 236 238 244 247 248 270 288 298 309 316 321 324 324 326 325 326 329
Height
5885 5886 5887 5887 5888 5888 5888 5888 5888 5888 5889 5889 5889 5889 5889 5889 5889 5889 5889 5889 5889 5889 5889 5889 5889 5889 5890 5890 5890 5890 5890 5891 5891 5892 5892 5892 5892 5892 5893 5893 5892 5892 5892
5880 5881 5881 5882 5883 5883 5884 5884 5884 5884 5884 5884 5885 5885 5885 5885 5885 5885 5885 5884 5884 5884 5885 5885 5885 5885 5885 5886 5886 5886 5886 5887 5887 5887 5888 5888 5888 5889 5889 5889 5888 5888 5888
5875 5875 5876 5877 5877 5878 5878 5879 5879 5879 5880 5880 5880 5880 5880 5880 5880 5880 5880 5880 5880 5880 5880 5880 5881 5881 5881 5881 5881 5881 5882 5882 5882 5883 5883 5884 5884 5884 5884 5884 5884 5884 5883
5870 5870 5871 5871 5872 5873 5873 5873 5874 5874 5874 5874 5875 5875 5875 5875 5875 5875 5875 5875 5875 5875 5875 5876 5876 5876 5876 5876 5876 5876 5877 5877 5877 5878 5878 5878 5879 5879 5879 5879 5879 5879 5878
5864 5865 5865 5866 5866 5867 5867 5868 5868 5868 5869 5869 5869 5869 5870 5870 5870 5869 5869 5870 5870 5870 5870 5870 5871 5871 5871 5871 5871 5871 5871 5872 5872 5872 5873 5873 5873 5873 5873 5873 5873 5873 5872
5859 5859 5860 5860 5860 5861 5862 5862 5862 5863 5863 5863 5863 5864 5864 5864 5864 5864 5864 5864 5865 5865 5865 5865 5865 5865 5865 5865 5865 5865 5866 5866 5866 5866 5866 5867 5867 5867 5867 5867 5867 5867 5866
5853 5854 5854 5855 5855 5855 5856 5856 5856 5856 5857 5857 5858 5858 5858 5858 5858 5858 5858 5859 5859 5859 5859 5859 5859 5859 5859 5860 5859 5860 5860 5860 5860 5860 5860 5860 5860 5860 5861 5861 5861 5860 5860
5847 5848 5848 5849 5849 5850 5850 5850 5850 5851 5851 5851 5851 5851 5852 5852 5852 5852 5852 5853 5853 5853 5853 5853 5853 5854 5854 5854 5853 5854 5853 5854 5854 5854 5854 5854 5853 5854 5854 5853 5853 5853 5852
5841 5842 5843 5843 5843 5844 5844 5844 5844 5844 5845 5845 5845 5845 5846 5846 5846 5846 5846 5846 5846 5847 5847 5847 5847 5848 5848 5848 5847 5848 5848 5848 5847 5847 5847 5847 5846 5846 5846 5846 5846 5845 5845
5836 5836 5836 5837 5837 5838 5838 5838 5838 5838 5838 5838 5839 5839 5839 5839 5840 5840 5840 5840 5840 5840 5840 5841 5841 5841 5841 5841 5841 5841 5841 5841 5841 5841 5840 5840 5839 5839 5839 5839 5838 5838 5837
5829 5830 5830 5831 5831 5832 5832 5832 5832 5831 5832 5832 5832 5832 5832 5832 5833 5833 5834 5834 5833 5833 5833 5834 5834 5834 5834 5834 5834 5834 5834 5834 5833 5833 5833 5833 5832 5832 5831 5831 5830 5829 5829
5824 5824 5824 5825 5825 5825 5825 5825 5825 5825 5825 5825 5825 5825 5825 5826 5826 5826 5826 5826 5826 5826 5826 5827 5827 5827 5827 5827 5827 5827 5826 5826 5826 5827 5826 5826 5825 5824 5824 5823 5822 5821 5820
5817 5817 5817 5818 5818 5818 5818 5818 5818 5818 5818 5818 5818 5818 5818 5818 5819 5819 5819 5819 5819 5819 5819 5819 5819 5819 5820 5820 5819 5819 5819 5819 5819 5819 5819 5818 5818 5817 5816 5815 5814 5813 5812
5810 5810 5810 5810 5810 5811 5811 5811 5811 5811 5811 5811 5811 5811 5811 5811 5811 5811 5812 5812 5812 5812 5812 5812 5812 5812 5812 5812 5812 5812 5812 5812 5812 5811 5811 5811 5810 5810 5809 5808 5807 5805 5804
5803 5803 5803 5803 5803 5803 5803 5803 5803 5803 5803 5803 5804 5804 5804 5804 5804 5804 5804 5805 5805 5805 5805 5805 5805 5804 5804 5804 5805 5804 5804 5804 5804 5804 5803 5803 5802 5802 5801 5800 5799 5797 5796
5795 5795 5795 5795 5795 5795 5795 5795 5795 5795 5795 5796 5796 5796 5796 5796 5796 5797 5797 5797 5797 5798 5798 5798 5798 5798 5797 5797 5797 5797 5797 5797 5797 5796 5796 5795 5795 5794 5793 5793 5791 5790 5789
5787 5786 5786 5786 5786 5786 5786 5786 5786 5787 5787 5788 5788 5788 5788 5789 5789 5789 5790 5790 5790 5791 5791 5791 5791 5791 5791 5790 5790 5790 5790 5790 5790 5790 5789 5789 5788 5787 5786 5785 5784 5783 5781
5778 5777 5777 5777 5777 5777 5778 5778 5778 5778 5779 5779 5780 5780 5781 5781 5781 5782 5783 5783 5783 5784 5784 5784 5784 5784 5784 5784 5784 5784 5784 5784 5784 5783 5783 5782 5781 5780 5779 5778 5777 5776 5774
5770 5769 5769 5768 5768 5769 5769 5769 5770 5770 5770 5771 5771 5772 5772 5773 5774 5775 5776 5776 5777 5777 5778 5778 5778 5778 5778 5778 5778 5778 5778 5778 5778 5777 5776 5776 5775 5774 5773 5772 5771 5769 5768
5762 5761 5761 5760 5760 5760 5761 5761 5762 5762 5763 5763 5764 5764 5765 5766 5767 5768 5769 5770 5771 5771 5771 5772 5772 5772 5772 5772 5772 5772 5772 5772 5772 5771 5771 5770 5769 5768 5767 5766 5765 5764 5762
5754 5753 5753 5753 5753 5753 5754 5754 5755 5755 5756 5756 5757 5757 5758 5759 5760 5762 5763 5764 5765 5765 5766 5766 5767 5767 5767 5767 5767 5767 5767 5767 5767 5766 5766 5765 5765 5764 5763 5762 5760 5759 5758
5747 5747 5746 5746 5746 5747 5747 5747 5748 5749 5749 5750 5751 5752 5752 5753 5755 5756 5757 5758 5760 5760 5761 5762 5762 5762 5762 5762 5762 5762 5763 5763 5763 5763 5762 5762 5761 5760 5759 5758 5756 5755 5753
5741 5741 5740 5740 5741 5741 5741 5742 5742 5743 5744 5745 5746 5746 5747 5749 5750 5752 5753 5754 5755 5756 5757 5757 5758 5758 5758 5759 5759 5759 5759 5759 5759 5759 5759 5758 5757 5756 5755 5754 5752 5751 5750
5735 5735 5735 5735 5735 5736 5737 5737 5738 5738 5739 5741 5742 5743 5744 5745 5747 5748 5749 5750 5751 5752 5753 5753 5754 5755 5755 5756 5756 5756 5756 5756 5756 5756 5756 5756 5754 5753 5752 5751 5750 5748 5747
5730 5730 5730 5730 5731 5732 5733 5734 5735 5735 5736 5737 5738 5740 5741 5743 5744 5745 5747 5747 5748 5749 5750 5750 5751 5752 5753 5753 5753 5754 5754 5754 5754 5754 5753 5753 5752 5751 5750 5749 5748 5747 5745
5726 5726 5726 5726 5727 5728 5729 5731 5732 5733 5734 5735 5736 5738 5739 5741 5742 5743 5744 5745 5746 5747 5748 5748 5749 5750 5751 5751 5752 5752 5752 5752 5752 5752 5752 5751 5751 5750 5749 5748 5746 5745 5743